Terminal Aerodrome Forecast
Issued by NWS El Paso, TX

Home | Current Version | Previous Version | Text Only | Print | Product List | Glossary On
Versions: 1 2 3 4 5 6 7 8 9 10 11 12
000
FTUS44 KEPZ 181100
TAFELP
TAF
KELP 181136Z 1812/1912 VRB05KT P6SM FEW050 OVC200
     FM182100 25009KT P6SM SCT050 BKN090
      TEMPO 1823/1903 -SHRA BKN050=

USA.gov is the U.S. government's official web portal to all federal, state and local government web resources and services.